Time,TemperatureF,DewpointF,PressureIn,WindDirection,WindDirectionDegrees,WindSpeedMPH,WindSpeedGustMPH,Humidity,HourlyPrecipIn,Conditions,Clouds,dailyrainin,SoftwareType,DateUTC
2013-03-01 00:00:00,35.8,27.4,29.77,WSW,248,1.1,1.1,71,0.00,,,0.01,WUHU216HW,2013-03-01 05:00:00,
2013-03-01 00:02:00,35.3,27.1,29.78,West,270,0.4,0.4,72,0.00,,,0.01,WUHU216HW,2013-03-01 05:02:00,
2013-03-01 00:06:00,35.3,27.1,29.78,West,270,0.4,0.4,72,0.00,,,0.01,WUHU216HW,2013-03-01 05:06:00,
2013-03-01 00:30:00,35.6,27.5,29.79,WNW,293,0.9,0.9,72,0.00,,,0.00,WUHU216HW,2013-03-01 05:30:00,
2013-03-01 00:35:00,35.6,27.5,29.79,WNW,293,0.9,0.9,72,0.00,,,0.00,WUHU216HW,2013-03-01 05:35:00,
2013-03-01 01:00:00,37.3,27.3,29.81,NW,315,2.2,2.2,67,0.00,,,0.00,WUHU216HW,2013-03-01 06:00:00,
2013-03-01 01:05:00,37.6,27.3,29.81,West,270,1.3,2.5,66,0.00,,,0.00,WUHU216HW,2013-03-01 06:05:00,
2013-03-01 01:10:00,38.0,27.2,29.80,West,270,1.1,2.5,65,0.00,,,0.00,WUHU216HW,2013-03-01 06:10:00,
2013-03-01 01:15:00,38.0,26.8,29.81,NW,315,2.0,4.5,64,0.00,,,0.00,WUHU216HW,2013-03-01 06:15:00,
2013-03-01 01:20:00,38.2,26.7,29.80,NW,315,0.9,4.5,63,0.00,,,0.00,WUHU216HW,2013-03-01 06:20:00,
2013-03-01 01:25:00,38.2,26.7,29.80,NW,315,0.9,3.1,63,0.00,,,0.00,WUHU216HW,2013-03-01 06:25:00,
2013-03-01 01:31:00,38.3,26.8,29.80,WNW,293,1.6,2.0,63,0.00,,,0.00,WUHU216HW,2013-03-01 06:31:00,
2013-03-01 01:36:00,38.3,26.8,29.79,WNW,293,2.5,2.7,63,0.00,,,0.00,WUHU216HW,2013-03-01 06:36:00,
2013-03-01 01:41:00,38.2,26.7,29.79,NW,315,2.5,2.9,63,0.00,,,0.00,WUHU216HW,2013-03-01 06:41:00,
2013-03-01 01:46:00,38.2,26.7,29.79,WSW,248,1.8,2.9,63,0.00,,,0.00,WUHU216HW,2013-03-01 06:46:00,
2013-03-01 01:51:00,38.0,26.5,29.79,WNW,293,3.4,4.5,63,0.00,,,0.00,WUHU216HW,2013-03-01 06:51:00,
2013-03-01 01:56:00,37.8,26.3,29.79,West,270,1.8,4.5,63,0.00,,,0.00,WUHU216HW,2013-03-01 06:56:00,
2013-03-01 02:01:00,37.6,26.1,29.79,West,270,2.7,3.8,63,0.00,,,0.00,WUHU216HW,2013-03-01 07:01:00,
2013-03-01 02:06:00,37.6,26.1,29.79,NW,315,2.0,2.7,63,0.00,,,0.00,WUHU216HW,2013-03-01 07:06:00,
2013-03-01 02:11:00,37.6,26.1,29.79,NNW,338,1.3,2.7,63,0.00,,,0.00,WUHU216HW,2013-03-01 07:11:00,
2013-03-01 02:16:00,37.6,26.1,29.79,WNW,293,0.7,2.0,63,0.00,,,0.00,WUHU216HW,2013-03-01 07:16:00,
2013-03-01 02:21:00,37.4,26.0,29.79,WNW,293,0.0,1.6,63,0.00,,,0.00,WUHU216HW,2013-03-01 07:21:00,
2013-03-01 02:26:00,37.4,26.0,29.79,WNW,293,0.0,0.4,63,0.00,,,0.00,WUHU216HW,2013-03-01 07:26:00,
2013-03-01 02:31:00,37.1,26.0,29.79,NW,315,1.3,1.3,64,0.00,,,0.00,WUHU216HW,2013-03-01 07:31:00,
2013-03-01 02:36:00,37.1,26.0,29.79,NNW,338,0.2,1.8,64,0.00,,,0.00,WUHU216HW,2013-03-01 07:36:00,
2013-03-01 02:41:00,37.1,26.0,29.79,NNW,338,0.2,1.8,64,0.00,,,0.00,WUHU216HW,2013-03-01 07:41:00,
2013-03-01 02:49:00,37.6,26.6,29.79,North,0,0.4,0.4,64,0.00,,,0.00,WUHU216HW,2013-03-01 07:49:00,
2013-03-01 02:54:00,37.6,26.6,29.79,NNE,23,0.9,1.1,64,0.00,,,0.00,WUHU216HW,2013-03-01 07:54:00,
2013-03-01 02:59:00,37.6,26.1,29.79,NNW,338,1.1,2.2,63,0.00,,,0.00,WUHU216HW,2013-03-01 07:59:00,
2013-03-01 03:05:00,37.6,26.1,29.79,North,0,1.1,2.2,63,0.00,,,0.00,WUHU216HW,2013-03-01 08:05:00,
2013-03-01 03:10:00,37.6,26.1,29.79,North,0,1.1,1.1,63,0.00,,,0.00,WUHU216HW,2013-03-01 08:10:00,
2013-03-01 03:31:00,37.4,26.0,29.79,North,0,0.7,0.7,63,0.00,,,0.00,WUHU216HW,2013-03-01 08:31:00,
2013-03-01 03:36:00,37.4,26.0,29.79,North,0,0.7,0.7,63,0.00,,,0.00,WUHU216HW,2013-03-01 08:36:00,
2013-03-01 04:00:00,37.3,25.8,29.78,North,0,1.1,1.1,63,0.00,,,0.00,WUHU216HW,2013-03-01 09:00:00,
2013-03-01 04:05:00,37.3,26.2,29.78,NNW,338,0.7,1.1,64,0.00,,,0.00,WUHU216HW,2013-03-01 09:05:00,
2013-03-01 04:10:00,37.3,26.2,29.78,NNW,338,0.7,0.7,64,0.00,,,0.00,WUHU216HW,2013-03-01 09:10:00,
2013-03-01 04:30:00,37.4,26.0,29.79,ENE,68,3.4,3.4,63,0.00,,,0.00,WUHU216HW,2013-03-01 09:30:00,
2013-03-01 04:31:00,37.4,26.0,29.79,ENE,68,3.4,3.4,63,0.00,,,0.00,WUHU216HW,2013-03-01 09:31:00,
2013-03-01 04:36:00,37.4,26.0,29.79,ENE,68,3.4,3.4,63,0.00,,,0.00,WUHU216HW,2013-03-01 09:36:00,
2013-03-01 05:00:00,37.1,26.0,29.80,North,0,0.4,0.4,64,0.00,,,0.00,WUHU216HW,2013-03-01 10:00:00,
2013-03-01 05:02:00,37.1,26.0,29.80,East,90,0.2,0.2,64,0.00,,,0.00,WUHU216HW,2013-03-01 10:02:00,
2013-03-01 05:05:00,37.1,26.0,29.80,East,90,0.2,0.9,64,0.00,,,0.00,WUHU216HW,2013-03-01 10:05:00,
2013-03-01 05:10:00,37.1,26.0,29.80,East,90,0.2,0.9,64,0.00,,,0.00,WUHU216HW,2013-03-01 10:10:00,
2013-03-01 05:32:00,36.9,26.2,29.81,NE,45,1.6,1.6,65,0.00,,,0.00,WUHU216HW,2013-03-01 10:32:00,
2013-03-01 05:37:00,36.9,26.2,29.80,NE,45,1.6,1.6,65,0.00,,,0.00,WUHU216HW,2013-03-01 10:37:00,
2013-03-01 06:00:00,37.4,26.0,29.80,WNW,293,1.3,1.3,63,0.00,,,0.00,WUHU216HW,2013-03-01 11:00:00,
2013-03-01 06:05:00,37.3,25.8,29.81,North,0,0.2,1.6,63,0.00,,,0.00,WUHU216HW,2013-03-01 11:05:00,
2013-03-01 06:06:00,37.3,25.8,29.81,NW,315,0.0,0.0,63,0.00,,,0.00,WUHU216HW,2013-03-01 11:06:00,
2013-03-01 06:10:00,37.3,25.8,29.81,NW,315,0.0,1.6,63,0.00,,,0.00,WUHU216HW,2013-03-01 11:10:00,
2013-03-01 06:15:00,37.3,25.8,29.81,NW,315,0.0,0.2,63,0.00,,,0.00,WUHU216HW,2013-03-01 11:15:00,
2013-03-01 06:30:00,37.1,26.0,29.81,SW,225,0.4,0.4,64,0.00,,,0.00,WUHU216HW,2013-03-01 11:30:00,
2013-03-01 06:35:00,37.1,26.0,29.81,NW,315,0.9,1.1,64,0.00,,,0.00,WUHU216HW,2013-03-01 11:35:00,
2013-03-01 06:40:00,37.1,26.0,29.81,NW,315,0.4,1.1,64,0.00,,,0.00,WUHU216HW,2013-03-01 11:40:00,
2013-03-01 06:45:00,37.1,26.0,29.81,NNW,338,0.7,1.8,64,0.00,,,0.00,WUHU216HW,2013-03-01 11:45:00,
2013-03-01 06:51:00,37.1,26.0,29.82,NNW,338,0.2,1.8,64,0.00,,,0.00,WUHU216HW,2013-03-01 11:51:00,
2013-03-01 06:56:00,37.1,26.0,29.82,NW,315,0.0,0.9,64,0.00,,,0.00,WUHU216HW,2013-03-01 11:56:00,
2013-03-01 07:01:00,37.1,25.7,29.82,NW,315,0.4,0.9,63,0.00,,,0.00,WUHU216HW,2013-03-01 12:01:00,
2013-03-01 07:06:00,37.3,25.8,29.82,NW,315,1.3,1.8,63,0.00,,,0.00,WUHU216HW,2013-03-01 12:06:00,
2013-03-01 07:11:00,37.3,25.8,29.82,NNE,23,2.7,3.8,63,0.00,,,0.00,WUHU216HW,2013-03-01 12:11:00,
2013-03-01 07:16:00,37.3,25.8,29.83,WNW,293,0.0,3.8,63,0.00,,,0.00,WUHU216HW,2013-03-01 12:16:00,
2013-03-01 07:21:00,37.3,25.8,29.83,WNW,293,0.0,2.2,63,0.00,,,0.00,WUHU216HW,2013-03-01 12:21:00,
2013-03-01 07:26:00,37.3,25.8,29.83,WNW,293,0.0,0.9,63,0.00,,,0.00,WUHU216HW,2013-03-01 12:26:00,
2013-03-01 07:31:00,37.1,25.7,29.84,NW,315,1.1,2.5,63,0.00,,,0.00,WUHU216HW,2013-03-01 12:31:00,
2013-03-01 07:36:00,37.3,25.8,29.84,NNW,338,0.9,2.5,63,0.00,,,0.00,WUHU216HW,2013-03-01 12:36:00,
2013-03-01 07:41:00,37.3,25.8,29.84,NNW,338,0.9,1.1,63,0.00,,,0.00,WUHU216HW,2013-03-01 12:41:00,
2013-03-01 07:49:00,37.3,25.8,29.85,NW,315,1.3,1.3,63,0.00,,,0.00,WUHU216HW,2013-03-01 12:49:00,
2013-03-01 07:54:00,37.4,26.0,29.85,NW,315,1.1,1.6,63,0.00,,,0.00,WUHU216HW,2013-03-01 12:54:00,
2013-03-01 07:59:00,37.3,25.8,29.85,NW,315,3.1,3.1,63,0.00,,,0.00,WUHU216HW,2013-03-01 12:59:00,
2013-03-01 08:04:00,37.3,25.5,29.85,NW,315,2.0,3.4,62,0.00,,,0.00,WUHU216HW,2013-03-01 13:04:00,
2013-03-01 08:09:00,37.3,25.5,29.85,NW,315,2.0,3.4,62,0.00,,,0.00,WUHU216HW,2013-03-01 13:09:00,
2013-03-01 08:30:00,37.3,25.5,29.86,NW,315,1.3,1.3,62,0.00,,,0.00,WUHU216HW,2013-03-01 13:30:00,
2013-03-01 08:35:00,37.3,25.8,29.86,NNW,338,2.2,2.9,63,0.00,,,0.00,WUHU216HW,2013-03-01 13:35:00,
2013-03-01 08:40:00,37.1,25.7,29.86,NW,315,2.9,4.7,63,0.00,,,0.00,WUHU216HW,2013-03-01 13:40:00,
2013-03-01 08:45:00,37.1,25.7,29.86,NW,315,2.2,4.7,63,0.00,,,0.00,WUHU216HW,2013-03-01 13:45:00,
2013-03-01 08:50:00,37.1,25.7,29.86,NW,315,2.2,2.2,63,0.00,,,0.00,WUHU216HW,2013-03-01 13:50:00,
2013-03-01 09:00:00,37.1,26.0,29.85,NW,315,1.3,1.3,64,0.00,,,0.00,WUHU216HW,2013-03-01 14:00:00,
2013-03-01 09:05:00,37.1,26.0,29.86,NW,315,2.5,2.9,64,0.00,,,0.00,WUHU216HW,2013-03-01 14:05:00,
2013-03-01 09:10:00,37.1,26.4,29.86,NW,315,1.6,4.0,65,0.00,,,0.00,WUHU216HW,2013-03-01 14:10:00,
2013-03-01 09:15:00,37.1,26.4,29.86,WNW,293,0.9,4.0,65,0.00,,,0.00,WUHU216HW,2013-03-01 14:15:00,
2013-03-01 09:19:00,37.1,26.7,29.86,NW,315,1.1,1.1,66,0.00,,,0.00,WUHU216HW,2013-03-01 14:19:00,
2013-03-01 09:20:00,37.1,26.7,29.86,NW,315,1.1,3.1,66,0.00,,,0.00,WUHU216HW,2013-03-01 14:20:00,
2013-03-01 09:25:00,37.1,26.7,29.86,NW,315,1.1,1.8,66,0.00,,,0.00,WUHU216HW,2013-03-01 14:25:00,
2013-03-01 09:30:00,37.6,27.6,29.86,North,0,0.7,0.7,67,0.00,,,0.00,WUHU216HW,2013-03-01 14:30:00,
2013-03-01 09:35:00,37.8,27.5,29.86,NNE,23,1.3,1.3,66,0.00,,,0.00,WUHU216HW,2013-03-01 14:35:00,
2013-03-01 09:40:00,37.8,27.5,29.86,NNE,23,1.3,1.3,66,0.00,,,0.00,WUHU216HW,2013-03-01 14:40:00,
2013-03-01 09:49:00,37.4,27.5,29.86,WNW,293,0.7,0.7,67,0.00,,,0.00,WUHU216HW,2013-03-01 14:49:00,
2013-03-01 09:54:00,37.8,27.8,29.86,WNW,293,0.7,2.5,67,0.00,,,0.00,WUHU216HW,2013-03-01 14:54:00,
2013-03-01 09:59:00,38.0,27.6,29.86,WSW,248,0.4,2.5,66,0.00,,,0.00,WUHU216HW,2013-03-01 14:59:00,
2013-03-01 10:04:00,37.8,27.5,29.86,WSW,248,1.3,1.8,66,0.00,,,0.00,WUHU216HW,2013-03-01 15:04:00,
2013-03-01 10:09:00,37.8,27.5,29.86,WSW,248,1.3,1.3,66,0.00,,,0.00,WUHU216HW,2013-03-01 15:09:00,
2013-03-01 10:31:00,37.8,27.5,29.86,NNW,338,1.3,1.3,66,0.00,,,0.00,WUHU216HW,2013-03-01 15:31:00,
2013-03-01 10:36:00,37.8,27.5,29.86,NW,315,2.0,2.0,66,0.00,,,0.00,WUHU216HW,2013-03-01 15:36:00,
2013-03-01 10:41:00,37.8,27.5,29.86,NW,315,2.0,2.0,66,0.00,,,0.00,WUHU216HW,2013-03-01 15:41:00,
2013-03-01 11:00:00,38.0,27.6,29.87,WSW,248,2.5,3.8,66,0.00,,,0.00,WUHU216HW,2013-03-01 16:00:00,
2013-03-01 11:05:00,38.0,27.2,29.87,WNW,293,1.3,3.8,65,0.00,,,0.00,WUHU216HW,2013-03-01 16:05:00,
2013-03-01 11:10:00,38.2,27.4,29.87,WNW,293,1.1,3.4,65,0.00,,,0.00,WUHU216HW,2013-03-01 16:10:00,
2013-03-01 11:15:00,38.2,27.4,29.87,NW,315,1.6,2.7,65,0.00,,,0.00,WUHU216HW,2013-03-01 16:15:00,
2013-03-01 11:20:00,38.2,27.4,29.87,NW,315,1.6,1.6,65,0.00,,,0.00,WUHU216HW,2013-03-01 16:20:00,
2013-03-01 11:30:00,38.3,26.8,29.87,NNW,338,1.1,1.1,63,0.00,,,0.00,WUHU216HW,2013-03-01 16:30:00,
2013-03-01 11:35:00,38.7,27.1,29.87,West,270,1.1,3.4,63,0.00,,,0.00,WUHU216HW,2013-03-01 16:35:00,
2013-03-01 11:40:00,38.7,27.1,29.87,West,270,1.1,3.4,63,0.00,,,0.00,WUHU216HW,2013-03-01 16:40:00,
2013-03-01 11:45:00,38.7,27.5,29.87,West,270,1.8,3.8,64,0.00,,,0.00,WUHU216HW,2013-03-01 16:45:00,
2013-03-01 11:50:00,39.1,27.5,29.87,NNW,338,2.2,3.8,63,0.00,,,0.00,WUHU216HW,2013-03-01 16:50:00,
2013-03-01 11:55:00,38.5,26.9,29.87,WNW,293,1.1,4.0,63,0.00,,,0.00,WUHU216HW,2013-03-01 16:55:00,
2013-03-01 12:00:00,38.5,26.9,29.87,NNW,338,2.2,4.5,63,0.00,,,0.00,WUHU216HW,2013-03-01 17:00:00,
2013-03-01 12:05:00,38.5,26.9,29.87,WNW,293,1.8,4.5,63,0.00,,,0.00,WUHU216HW,2013-03-01 17:05:00,
2013-03-01 12:10:00,38.5,26.9,29.87,WNW,293,3.1,4.0,63,0.00,,,0.00,WUHU216HW,2013-03-01 17:10:00,
2013-03-01 12:15:00,38.5,26.9,29.87,WNW,293,2.5,4.0,63,0.00,,,0.00,WUHU216HW,2013-03-01 17:15:00,
2013-03-01 12:20:00,38.5,26.9,29.86,NW,315,1.6,3.1,63,0.00,,,0.00,WUHU216HW,2013-03-01 17:20:00,
2013-03-01 12:25:00,38.5,26.9,29.86,NW,315,1.6,3.1,63,0.00,,,0.00,WUHU216HW,2013-03-01 17:25:00,
2013-03-01 12:30:00,39.1,27.1,29.86,WSW,248,3.4,3.4,62,0.00,,,0.00,WUHU216HW,2013-03-01 17:30:00,
2013-03-01 12:33:00,39.1,27.1,29.86,NNW,338,1.8,1.8,62,0.00,,,0.00,WUHU216HW,2013-03-01 17:33:00,
2013-03-01 12:35:00,39.1,27.1,29.86,NNW,338,1.8,3.4,62,0.00,,,0.00,WUHU216HW,2013-03-01 17:35:00,
2013-03-01 12:40:00,39.1,27.1,29.86,NNW,338,1.8,3.4,62,0.00,,,0.00,WUHU216HW,2013-03-01 17:40:00,
2013-03-01 12:49:00,38.9,26.9,29.85,SW,225,0.2,2.0,62,0.00,,,0.00,WUHU216HW,2013-03-01 17:49:00,
2013-03-01 12:54:00,38.9,26.9,29.85,NW,315,3.4,3.4,62,0.00,,,0.00,WUHU216HW,2013-03-01 17:54:00,
2013-03-01 12:59:00,38.5,26.6,29.85,NW,315,1.1,3.8,62,0.00,,,0.00,WUHU216HW,2013-03-01 17:59:00,
2013-03-01 13:04:00,38.3,26.4,29.85,NNW,338,1.1,3.8,62,0.00,,,0.00,WUHU216HW,2013-03-01 18:04:00,
2013-03-01 13:09:00,38.3,26.8,29.85,NNW,338,2.5,3.1,63,0.00,,,0.00,WUHU216HW,2013-03-01 18:09:00,
2013-03-01 13:14:00,38.3,26.8,29.85,NNW,338,2.5,2.5,63,0.00,,,0.00,WUHU216HW,2013-03-01 18:14:00,
2013-03-01 13:33:00,39.1,27.1,29.85,WNW,293,1.1,1.1,62,0.00,,,0.00,WUHU216HW,2013-03-01 18:33:00,
2013-03-01 13:38:00,38.9,26.9,29.85,WNW,293,1.6,2.5,62,0.00,,,0.00,WUHU216HW,2013-03-01 18:38:00,
2013-03-01 13:43:00,38.7,26.7,29.85,NNW,338,0.9,2.5,62,0.00,,,0.00,WUHU216HW,2013-03-01 18:43:00,
2013-03-01 13:48:00,38.5,26.6,29.85,WNW,293,1.6,2.2,62,0.00,,,0.00,WUHU216HW,2013-03-01 18:48:00,
2013-03-01 13:53:00,38.5,26.6,29.85,NNW,338,2.5,3.8,62,0.00,,,0.00,WUHU216HW,2013-03-01 18:53:00,
2013-03-01 13:58:00,38.5,25.8,29.85,NNW,338,2.7,3.8,60,0.00,,,0.00,WUHU216HW,2013-03-01 18:58:00,
2013-03-01 14:03:00,38.9,26.1,29.84,NW,315,2.5,3.8,60,0.00,,,0.00,WUHU216HW,2013-03-01 19:03:00,
2013-03-01 14:08:00,38.9,26.1,29.84,NW,315,2.5,3.8,60,0.00,,,0.00,WUHU216HW,2013-03-01 19:08:00,
2013-03-01 14:30:00,38.7,26.4,29.84,NNW,338,0.9,0.9,61,0.00,,,0.00,WUHU216HW,2013-03-01 19:30:00,
2013-03-01 14:35:00,38.7,26.4,29.84,NNW,338,0.4,2.0,61,0.00,,,0.00,WUHU216HW,2013-03-01 19:35:00,
2013-03-01 14:40:00,38.9,26.6,29.84,NW,315,0.9,3.1,61,0.00,,,0.00,WUHU216HW,2013-03-01 19:40:00,
2013-03-01 14:45:00,39.1,26.6,29.84,NNW,338,0.4,3.1,61,0.00,,,0.00,WUHU216HW,2013-03-01 19:45:00,
2013-03-01 14:50:00,39.1,26.6,29.85,NW,315,2.2,2.7,61,0.00,,,0.00,WUHU216HW,2013-03-01 19:50:00,
2013-03-01 14:55:00,39.2,26.8,29.85,NW,315,0.4,2.5,61,0.00,,,0.00,WUHU216HW,2013-03-01 19:55:00,
2013-03-01 15:00:00,38.9,26.1,29.84,West,270,3.4,3.4,60,0.00,,,0.00,WUHU216HW,2013-03-01 20:00:00,
2013-03-01 15:05:00,38.5,25.8,29.84,NW,315,2.7,4.7,60,0.00,,,0.00,WUHU216HW,2013-03-01 20:05:00,
2013-03-01 15:10:00,38.5,25.8,29.84,West,270,3.4,4.7,60,0.00,,,0.00,WUHU216HW,2013-03-01 20:10:00,
2013-03-01 15:15:00,38.5,26.2,29.84,NNW,338,0.4,4.3,61,0.00,,,0.00,WUHU216HW,2013-03-01 20:15:00,
2013-03-01 15:20:00,38.5,25.8,29.83,WNW,293,2.5,4.0,60,0.00,,,0.00,WUHU216HW,2013-03-01 20:20:00,
2013-03-01 15:25:00,38.5,25.8,29.83,WNW,293,2.5,2.5,60,0.00,,,0.00,WUHU216HW,2013-03-01 20:25:00,
2013-03-01 15:30:00,38.5,25.8,29.84,WNW,293,1.8,1.8,60,0.00,,,0.00,WUHU216HW,2013-03-01 20:30:00,
2013-03-01 15:33:00,38.5,26.2,29.84,NNW,338,1.1,1.1,61,0.00,,,0.00,WUHU216HW,2013-03-01 20:33:00,
2013-03-01 15:35:00,38.5,26.2,29.84,NNW,338,1.1,1.8,61,0.00,,,0.00,WUHU216HW,2013-03-01 20:35:00,
2013-03-01 15:40:00,38.5,26.2,29.84,NNW,338,1.1,1.8,61,0.00,,,0.00,WUHU216HW,2013-03-01 20:40:00,
2013-03-01 15:49:00,38.0,25.3,29.84,WNW,293,1.3,1.3,60,0.00,,,0.00,WUHU216HW,2013-03-01 20:49:00,
2013-03-01 15:54:00,38.0,24.9,29.84,NW,315,2.5,3.6,59,0.00,,,0.00,WUHU216HW,2013-03-01 20:54:00,
2013-03-01 15:59:00,37.8,24.8,29.84,WNW,293,3.1,4.0,59,0.00,,,0.00,WUHU216HW,2013-03-01 20:59:00,
2013-03-01 16:04:00,37.8,25.2,29.85,NW,315,2.9,4.0,60,0.00,,,0.00,WUHU216HW,2013-03-01 21:04:00,
2013-03-01 16:10:00,37.8,25.2,29.85,West,270,1.8,3.4,60,0.00,,,0.00,WUHU216HW,2013-03-01 21:10:00,
2013-03-01 16:15:00,37.8,24.8,29.85,NW,315,2.9,3.4,59,0.00,,,0.00,WUHU216HW,2013-03-01 21:15:00,
2013-03-01 16:20:00,37.8,24.8,29.85,NW,315,2.9,3.4,59,0.00,,,0.00,WUHU216HW,2013-03-01 21:20:00,
2013-03-01 16:32:00,37.8,24.3,29.85,North,0,0.4,0.4,58,0.00,,,0.00,WUHU216HW,2013-03-01 21:32:00,
2013-03-01 16:37:00,37.8,24.3,29.85,NW,315,2.5,2.5,58,0.00,,,0.00,WUHU216HW,2013-03-01 21:37:00,
2013-03-01 16:42:00,37.8,24.8,29.85,NW,315,1.1,2.5,59,0.00,,,0.00,WUHU216HW,2013-03-01 21:42:00,
2013-03-01 16:43:00,37.6,24.6,29.85,West,270,1.6,1.6,59,0.00,,,0.00,WUHU216HW,2013-03-01 21:43:00,
2013-03-01 16:47:00,37.6,24.6,29.85,West,270,1.6,2.5,59,0.00,,,0.00,WUHU216HW,2013-03-01 21:47:00,
2013-03-01 16:53:00,37.6,24.6,29.85,West,270,1.6,1.6,59,0.00,,,0.00,WUHU216HW,2013-03-01 21:53:00,
2013-03-01 17:00:00,37.3,23.9,29.86,West,270,4.3,4.3,58,0.00,,,0.00,WUHU216HW,2013-03-01 22:00:00,
2013-03-01 17:02:00,37.4,23.9,29.85,NW,315,3.4,3.4,58,0.00,,,0.00,WUHU216HW,2013-03-01 22:02:00,
2013-03-01 17:05:00,37.4,23.9,29.85,NW,315,3.4,4.3,58,0.00,,,0.00,WUHU216HW,2013-03-01 22:05:00,
2013-03-01 17:10:00,37.4,23.9,29.85,NW,315,3.4,3.6,58,0.00,,,0.00,WUHU216HW,2013-03-01 22:10:00,
2013-03-01 17:32:00,37.1,24.1,29.87,NNW,338,2.7,2.7,59,0.00,,,0.00,WUHU216HW,2013-03-01 22:32:00,
2013-03-01 17:33:00,37.1,24.5,29.87,NW,315,2.0,2.0,60,0.00,,,0.00,WUHU216HW,2013-03-01 22:33:00,
2013-03-01 17:37:00,37.1,24.5,29.87,NW,315,2.0,2.7,60,0.00,,,0.00,WUHU216HW,2013-03-01 22:37:00,
2013-03-01 17:42:00,37.1,24.5,29.87,NW,315,2.0,2.0,60,0.00,,,0.00,WUHU216HW,2013-03-01 22:42:00,
2013-03-01 18:00:00,36.5,24.0,29.87,NNW,338,0.4,0.4,60,0.00,,,0.00,WUHU216HW,2013-03-01 23:00:00,
2013-03-01 18:01:00,36.5,24.0,29.87,NW,315,1.8,1.8,60,0.00,,,0.00,WUHU216HW,2013-03-01 23:01:00,
2013-03-01 18:05:00,36.5,24.0,29.87,NW,315,1.8,1.8,60,0.00,,,0.00,WUHU216HW,2013-03-01 23:05:00,
2013-03-01 18:10:00,36.5,24.0,29.87,NW,315,1.8,1.8,60,0.00,,,0.00,WUHU216HW,2013-03-01 23:10:00,
2013-03-01 18:31:00,36.2,24.0,29.87,WNW,293,0.2,0.2,61,0.00,,,0.00,WUHU216HW,2013-03-01 23:31:00,
2013-03-01 18:36:00,36.2,24.0,29.87,West,270,0.4,0.9,61,0.00,,,0.00,WUHU216HW,2013-03-01 23:36:00,
2013-03-01 18:41:00,36.2,24.0,29.87,West,270,0.4,0.9,61,0.00,,,0.00,WUHU216HW,2013-03-01 23:41:00,
2013-03-01 19:00:00,36.2,23.7,29.88,WNW,293,1.6,1.6,60,0.00,,,0.00,WUHU216HW,2013-03-02 00:00:00,
2013-03-01 19:05:00,36.2,23.7,29.88,WNW,293,1.6,1.6,60,0.00,,,0.00,WUHU216HW,2013-03-02 00:05:00,
2013-03-01 19:21:00,36.0,23.6,29.89,West,270,3.4,3.4,60,0.00,,,0.00,WUHU216HW,2013-03-02 00:21:00,
2013-03-01 19:26:00,36.0,23.1,29.89,SW,225,2.2,3.8,59,0.00,,,0.00,WUHU216HW,2013-03-02 00:26:00,
2013-03-01 19:31:00,36.0,23.1,29.89,WNW,293,1.1,3.8,59,0.00,,,0.00,WUHU216HW,2013-03-02 00:31:00,
2013-03-01 19:36:00,36.0,23.1,29.89,NW,315,1.6,3.8,59,0.00,,,0.00,WUHU216HW,2013-03-02 00:36:00,
2013-03-01 19:41:00,36.0,23.1,29.89,West,270,0.9,3.8,59,0.00,,,0.00,WUHU216HW,2013-03-02 00:41:00,
2013-03-01 19:46:00,36.0,23.1,29.89,NW,315,1.6,2.2,59,0.00,,,0.00,WUHU216HW,2013-03-02 00:46:00,
2013-03-01 19:52:00,36.0,23.6,29.89,NNW,338,1.3,4.0,60,0.00,,,0.00,WUHU216HW,2013-03-02 00:52:00,
2013-03-01 19:57:00,36.0,23.6,29.89,NW,315,1.1,4.0,60,0.00,,,0.00,WUHU216HW,2013-03-02 00:57:00,
2013-03-01 20:02:00,35.8,23.4,29.90,NW,315,0.9,2.2,60,0.00,,,0.00,WUHU216HW,2013-03-02 01:02:00,
2013-03-01 20:07:00,35.6,23.2,29.90,NNW,338,0.9,2.2,60,0.00,,,0.00,WUHU216HW,2013-03-02 01:07:00,
2013-03-01 20:12:00,35.6,23.9,29.90,NNE,23,2.0,2.7,62,0.00,,,0.00,WUHU216HW,2013-03-02 01:12:00,
2013-03-01 20:17:00,35.6,23.9,29.90,North,0,0.4,2.7,62,0.00,,,0.00,WUHU216HW,2013-03-02 01:17:00,
2013-03-01 20:22:00,35.6,24.3,29.90,NNE,23,2.5,2.5,63,0.00,,,0.00,WUHU216HW,2013-03-02 01:22:00,
2013-03-01 20:27:00,35.5,23.8,29.90,North,0,0.9,2.5,62,0.00,,,0.00,WUHU216HW,2013-03-02 01:27:00,
2013-03-01 20:32:00,35.5,24.1,29.90,NNW,338,1.8,3.4,63,0.00,,,0.00,WUHU216HW,2013-03-02 01:32:00,
2013-03-01 20:37:00,35.3,24.3,29.91,WNW,293,1.6,3.4,64,0.00,,,0.00,WUHU216HW,2013-03-02 01:37:00,
2013-03-01 20:42:00,35.3,23.9,29.91,NW,315,0.9,2.5,63,0.00,,,0.00,WUHU216HW,2013-03-02 01:42:00,
2013-03-01 20:47:00,35.3,23.9,29.91,North,0,0.4,2.5,63,0.00,,,0.00,WUHU216HW,2013-03-02 01:47:00,
2013-03-01 20:52:00,35.1,24.1,29.91,WNW,293,0.9,2.0,64,0.00,,,0.00,WUHU216HW,2013-03-02 01:52:00,
2013-03-01 20:57:00,35.1,24.1,29.91,NW,315,2.0,2.5,64,0.00,,,0.00,WUHU216HW,2013-03-02 01:57:00,
2013-03-01 21:02:00,34.9,24.3,29.91,NNW,338,0.4,2.5,65,0.00,,,0.00,WUHU216HW,2013-03-02 02:02:00,
2013-03-01 21:07:00,34.9,24.3,29.91,WNW,293,2.0,2.0,65,0.00,,,0.00,WUHU216HW,2013-03-02 02:07:00,
2013-03-01 21:12:00,34.7,24.1,29.92,WNW,293,1.3,3.1,65,0.00,,,0.00,WUHU216HW,2013-03-02 02:12:00,
2013-03-01 21:17:00,34.7,24.1,29.91,WNW,293,2.5,3.1,65,0.00,,,0.00,WUHU216HW,2013-03-02 02:17:00,
2013-03-01 21:22:00,34.6,23.9,29.91,North,0,0.4,2.9,65,0.00,,,0.00,WUHU216HW,2013-03-02 02:22:00,
2013-03-01 21:27:00,34.6,23.9,29.91,NNW,338,1.8,2.9,65,0.00,,,0.00,WUHU216HW,2013-03-02 02:27:00,
2013-03-01 21:32:00,34.6,23.9,29.91,NNW,338,0.4,2.9,65,0.00,,,0.00,WUHU216HW,2013-03-02 02:32:00,
2013-03-01 21:37:00,34.6,24.3,29.91,North,0,2.2,2.2,66,0.00,,,0.00,WUHU216HW,2013-03-02 02:37:00,
2013-03-01 21:42:00,34.6,24.3,29.91,NNW,338,0.2,2.2,66,0.00,,,0.00,WUHU216HW,2013-03-02 02:42:00,
2013-03-01 21:47:00,34.4,24.8,29.91,NE,45,1.3,2.7,68,0.00,,,0.00,WUHU216HW,2013-03-02 02:47:00,
2013-03-01 21:52:00,34.2,24.3,29.92,NW,315,0.4,2.7,67,0.00,,,0.00,WUHU216HW,2013-03-02 02:52:00,
2013-03-01 21:57:00,34.2,24.3,29.91,NW,315,0.0,2.0,67,0.00,,,0.00,WUHU216HW,2013-03-02 02:57:00,
2013-03-01 22:02:00,34.2,24.3,29.91,NNW,338,0.4,1.1,67,0.00,,,0.00,WUHU216HW,2013-03-02 03:02:00,
2013-03-01 22:07:00,34.0,24.1,29.91,NNW,338,0.7,1.6,67,0.00,,,0.00,WUHU216HW,2013-03-02 03:07:00,
2013-03-01 22:12:00,34.0,24.1,29.91,NNE,23,1.1,1.8,67,0.00,,,0.00,WUHU216HW,2013-03-02 03:12:00,
2013-03-01 23:00:00,33.7,22.7,29.92,NNW,338,1.1,1.1,64,0.00,,,0.00,WUHU216HW,2013-03-02 04:00:00,
2013-03-01 23:05:00,33.7,22.3,29.92,NW,315,1.6,2.0,63,0.00,,,0.00,WUHU216HW,2013-03-02 04:05:00,
2013-03-01 23:10:00,33.7,22.3,29.92,NNE,23,2.7,2.7,63,0.00,,,0.00,WUHU216HW,2013-03-02 04:10:00,
2013-03-01 23:15:00,33.5,21.8,29.91,WNW,293,3.4,3.4,62,0.00,,,0.00,WUHU216HW,2013-03-02 04:15:00,
2013-03-01 23:20:00,33.5,21.8,29.91,NW,315,1.3,3.4,62,0.00,,,0.00,WUHU216HW,2013-03-02 04:20:00,
2013-03-01 23:25:00,33.7,21.6,29.91,NNW,338,2.9,2.9,61,0.00,,,0.00,WUHU216HW,2013-03-02 04:25:00,
2013-03-01 23:30:00,33.5,21.8,29.91,North,0,0.9,2.9,62,0.00,,,0.00,WUHU216HW,2013-03-02 04:30:00,
2013-03-01 23:35:00,33.5,21.8,29.91,NNW,338,0.9,1.6,62,0.00,,,0.00,WUHU216HW,2013-03-02 04:35:00,
2013-03-01 23:40:00,33.5,21.8,29.91,NNW,338,0.9,1.8,62,0.00,,,0.00,WUHU216HW,2013-03-02 04:40:00,
2013-03-01 23:45:00,33.5,21.8,29.91,WNW,293,0.7,1.8,62,0.00,,,0.00,WUHU216HW,2013-03-02 04:45:00,
2013-03-01 23:50:00,33.3,21.7,29.91,NNW,338,3.6,3.6,62,0.00,,,0.00,WUHU216HW,2013-03-02 04:50:00,
2013-03-01 23:55:00,33.5,21.8,29.91,NW,315,1.1,3.6,62,0.00,,,0.00,WUHU216HW,2013-03-02 04:55:00,